Погода Новый Порт

Погода Новый Порт : погода сейчас, прогноз погоды и архив. Всё, что Вы хотите узнать о погоде Новый Порт!

Хотите узнать прогноз погоды Новый Порт? Тогда Вам сюда: Погода Новый Порт

Поиск расширенной информации на нашем сайте:

Другие новости

Новости СМИ2

Главная страница сайта

Новости сайта

03.07.2017

Напоминаем, что на нашем специализированном сайте Метеоцентр.Азия вы можете получить высокодетализированные автоматические прогнозы погоды по пунктам России, СНГ и мира в авиационном формате (включающие направление и скорость ветра, видимость, явления погоды, количество и форму облачности, нижнюю и верхнюю границу облачности).

Рекомендуем: Услуги по лечению прыщей на странице салона красоты Жетернель.

Погода Новый Порт - сегодня

Время (UTC), дата Ветер
(°,м/с) 
Видим.   Явления Облачность Т
(°С)
Тd
(°С)
f(%) Тe
(°С)
Pmin
(гПа)
dP
(гПа)
Po
(мм)
O2
(г/м3)
Тmin Tmax R s Состояние
почвы
12 19.09.18 150 (ЮВ) 10 км    9/0 средняя, верхняя 
[Ac trans|Ci fib]
+8.1 +7 93 +7  1009.7  -0.8  756  295           
15 19.09.18 150 (ЮВ) 8{10}  10 км    10/8 570 м средняя 
[Cu hum|Ac und]
+7.9 +7.3 96 +5  1008.6  -1.1  755  295    +9.3       
00 20.09.18 200 (Ю) 10 км    10/10 450 м 
[Sc]
+8.7 +8.7 100 +8  1005.5  -0.6  753  293           
03 20.09.18 190 (Ю) 10 км  в посл. час ливневой дождь  10/9 300 м средняя 
[Cu Sc|Ac und]
+8.4 +8.4 100 +7  1005.6  0.1  753  293  +7.7    0.3    влажная 
06 20.09.18 200 (Ю) 10 км  {ливн. осадки}  10/10 330 м 
[Cu Sc]
+9.3 +9 98 +8  1005.6  753  292           
18 20.09.18 250 (З) 10 км    10/10 400 м 
[Cu Sc]
+8.3 +8.3 100 +9  1008.7  0.8  755  294           
00 21.09.18 280 (З) 10 км    5/0 средняя 
[Ac trans]
+5.6 +5.6 100 +5  1009.8  0.7  756  298           
03 21.09.18 330 (СЗ) 10 км    3/0 средняя, верхняя 
[Ac trans|Ci fib]
+4.5 +4.5 100 +4  1011.5  1.7  758  300  +3        влажная 
06 21.09.18 030 (СВ) 10 км    3/0 средняя, верхняя 
[Ac trans|Ci fib]
+10.2 +5.6 73 +11  1012.2  0.7  758  294           
12 21.09.18 110 (В) 10 км    ясно 
+7.1 +6.2 94 +6  1011.5  -0.6  758  296           
18 21.09.18 150 (ЮВ) 10 км    3/0 средняя 
[Ac trans]
+7 +7 100 +7  1008.8  -2  755  296           
00 22.09.18 210 (ЮЗ) 10 км    9/0 средняя 
[Ac trans]
+6.8 +6.1 95 +7  1006.6  -0.6  754  295           
03 22.09.18 200 (Ю) 10 км    9/0 средняя, верхняя 
[Ac trans|Ci fib]
+6.4 +6.2 99 +7  1006.8  0.2  754  296  +6.1        влажная 
06 22.09.18 250 (З) 10 км    8/0 средняя, верхняя 
[Ac trans|Ci fib]
+8.1 +7.7 97 +9  1007.4  0.6  754  294           
12 22.09.18 110 (В) 10 км    3/0 средняя 
[Ac trans]
+7.9 +7.4 97 +8  1008.5  1.3  755  295           
18 22.09.18 210 (ЮЗ) 10 км    3/0 средняя 
[Ac trans]
+4.5 +4.5 100 +5  1008.1  -0.7  755  299           
00 23.09.18 210 (ЮЗ) 10 км    4/0 средняя 
[Ac trans]
+4.2 +4 99 +4  1005.6  -1.6  753  298           
03 23.09.18 210 (ЮЗ) 10 км    9/0 средняя 
[Ac trans]
+6.8 +6.1 95 +5  1004.8  -0.8  752  295  +2.5        влажная 
06 23.09.18 190 (Ю) 10 км    10/0 средняя 
[As op]
+8.5 +7.4 93 +7  1002.5  -2.3  751  292           
03 24.09.18 100 (В) 10 км  в посл. час ливневой дождь  10/8 400 м средняя 
[Cu Sc|Ac und]
+7.6 +7.6 100 +8  1007.8  0.7  755  295  +7.6    0.0    влажная 
15 24.09.18 140 (ЮВ) 10 км  {ливн. осадки}  10/10 500 м 
[Cu Sc]
+7.9 +7.4 97 +7  1011.3  0.7  757  295    +10.9  0.3     
18 24.09.18 140 (ЮВ) 10 км    10/10 540 м 
[Cu Sc]
+8.1 +7.4 95 +7  1010.8  -0.5  757  295           
00 25.09.18 140 (ЮВ) 10 км    10/10 500 м 
[Cu Sc]
+8 +7.6 97 +6  1009.6  -0.7  756  295           
03 25.09.18 150 (ЮВ) 7{11}  10 км    10/10 210 м 
[St]
+8 +7.8 99 +6  1009  -0.6  756  294  +7.9        влажная 
18 25.09.18 340 (С) 10 км  {туман}  10/10 480 м 
[Sc]
+7.8 +7.4 97 +7  1009.2  0.7  756  295           
Время (UTC), дата Ветер
(°,м/с) 
Видим.   Явления Облачность Т
(°С)
Тd
(°С)
f(%) Тe
(°С)
Pmin
(гПа)
dP
(гПа)
Po
(мм)
O2
(г/м3)
Тmin Tmax R s Состояние
почвы

Для получения пояснительной информации подведите курсор к названию столбца.

ПОГОДА Новый Порт - архив

Всё, что Вы хотите узнать о погоде Новый Порт - удобно и подробно!

Выберите нужную дату (начиная с 1 января 2015* года) и нажмите кнопку "Найти".
Будут отображены архивные сводки погоды по пункту Новый Порт, начиная с указанной даты.


Отображать данные в формате CSV (для использования в таблицах Excel)


Внимание! Наш архив погоды предназначен исключительно для личного некоммерческого использования в познавательных целях. Если Вам необходимы официальные справки о состоянии погоды (для производственных, юридических, коммерческих и т.п. целей), обращайтесь в органы Росгидромета.

*Примечание: данная дата относится к архиву по метеостанциям СССР (Россия, СНГ, Балтия).
Архив по метеостанциям Зарубежной Европы и Азии (кроме Китая) хранится 10 дней, по другим регионам земного шара (Китай, Африка, Америка, Австралия, Океания) - 1 день.

Новый Порт - район местоположения метеостанции


Название, широта, долгота, высота метеостанции:
Новый Порт 67.7°ш. 72.9°д. 12 м над ур. моря [Российская Федерация]

Дополнительная информация

В oтличие oт бoльшинства пoгoдных сайтoв мы публикуем пoдрoбную метеoинфoрмацию в детальнoм прoфессиoнальнoм фoрмате.

Характеристики температуры и влажнoсти вoздуха измеряются на высoте 2 м в тени вдали oт зданий и деревьев.
Скoрoсть ветра измеряется на высoте 10 м (на урoвне рoста челoвека скoрoсть ветра ниже в 1.5-2 раза). Если метеoстанция нахoдится в гoрoде или в лесу, тo скoрoсть ветра занижена на 2-4 м/с пo сравнению с oткрытым местoм. Скoрoсть ветра над акватoриями крупных рек и oзёр, а также на вершинах хoлмoв на 2-5 м/с выше, чем в oбычных услoвиях.
Атмoсфернoе давление в разных тoчках местнoсти мoжет значительнo oтличаться oт давления на метеoстанции, в зависимoсти oт услoвий рельефа (при пoдъёме на 10 м давление пoнижается примернo на 1 мм рт.ст.).